Weather History for Blue Canyon, CA

Change the Weather History Date:

Tuesday, January 21, 2014

  Actual Average Record
Temperature  
Mean Temperature 52 °F -  
Max Temperature 57 °F 46 °F 64 °F (2013)
Min Temperature 48 °F 33 °F 10 °F (1962)
Degree Days  
Heating Degree Days 12    
Growing Degree Days 2 (Base 50)    
Moisture  
Dew Point 8 °F    
Average Humidity 17    
Maximum Humidity 21    
Minimum Humidity 11    
Precipitation  
Precipitation 0.00 in - - ()
Sea Level Pressure  
Sea Level Pressure 30.20 in    
Wind  
Wind Speed 2 mph (East)    
Max Wind Speed 7 mph    
Max Gust Speed -    
Visibility 10 miles    
Events      
Averages and records for this station are not official NWS values.
T = Trace of Precipitation, MM = Missing Value Source: NWS Daily Summary

Daily Weather History Graph

Daily Weather History Graph

Search for Another Location

Airport:

Trip Planner

Search our weather history database for the weather conditions in past years. The results will help you decide how hot, cold, wet, or windy it might be!

Date:

Astronomy

Jan. 21, 2014 Rise Set
Actual Time 7:17 AM PST 5:10 PM PST
Civil Twilight 6:48 AM PST 5:39 PM PST
Nautical Twilight 6:16 AM PST 6:12 PM PST
Astronomical Twilight 5:44 AM PST 6:44 PM PST
Moon 10:46 PM PST (1/21) 9:52 AM PST (1/21)
Length of Visible Light 10h 50m
Length of Day
9h 52m
Waning Gibbous, 73% of the Moon is Illuminated
Jan 21
Waning Gibbous
Jan 23
Last Quarter
Jan 30
New
Feb 6
First Quarter
Feb 14
Full

Hourly Weather History & Observations

Time (PST) Temp. Dew Point Humidity Pressure Visibility Wind Dir Wind Speed Gust Speed Precip Events Conditions
12:52 AM 52.0 °F 9.0 °F 18% 30.20 in 10.0 mi Calm Calm - N/A   Clear
1:52 AM 50.0 °F 10.0 °F 20% 30.20 in 10.0 mi Calm Calm - N/A   Clear
2:52 AM 50.0 °F 9.0 °F 19% 30.21 in 10.0 mi ESE 3.5 mph - N/A   Clear
3:52 AM 50.0 °F 10.0 °F 20% 30.22 in 10.0 mi SSE 3.5 mph - N/A   Clear
4:52 AM 48.9 °F 6.1 °F 18% 30.22 in 10.0 mi Calm Calm - N/A   Clear
5:52 AM 48.9 °F 3.9 °F 16% 30.24 in 10.0 mi East 3.5 mph - N/A   Clear
6:52 AM 48.9 °F 3.0 °F 15% 30.25 in 10.0 mi Calm Calm - N/A   Clear
7:52 AM 50.0 °F 1.9 °F 14% 30.25 in 10.0 mi Calm Calm - N/A   Clear
8:52 AM 52.0 °F 7.0 °F 16% 30.26 in 10.0 mi Calm Calm - N/A   Clear
9:52 AM 54.0 °F 6.1 °F 15% 30.25 in 10.0 mi Variable 3.5 mph - N/A   Clear
10:52 AM 55.0 °F 1.0 °F 11% 30.23 in 10.0 mi South 4.6 mph - N/A   Clear
11:52 AM 57.0 °F 6.1 °F 13% 30.20 in 10.0 mi Variable 4.6 mph - N/A   Clear
12:52 PM 57.0 °F 8.1 °F 14% 30.18 in 10.0 mi SW 5.8 mph - N/A   Clear
1:52 PM 57.0 °F 10.9 °F 16% 30.16 in 10.0 mi WNW 4.6 mph - N/A   Clear
2:52 PM 57.0 °F 10.9 °F 16% 30.16 in 10.0 mi West 4.6 mph - N/A   Clear
3:52 PM 57.0 °F 9.0 °F 15% 30.16 in 10.0 mi Calm Calm - N/A   Clear
4:52 PM 55.0 °F 12.9 °F 19% 30.17 in 10.0 mi Calm Calm - N/A   Clear
5:52 PM 52.0 °F 12.0 °F 20% 30.18 in 10.0 mi Calm Calm - N/A   Clear
6:52 PM 51.1 °F 12.0 °F 21% 30.19 in 10.0 mi ENE 3.5 mph - N/A   Clear
7:52 PM 51.1 °F 10.9 °F 20% 30.19 in 10.0 mi Calm Calm - N/A   Clear
8:52 PM 50.0 °F 10.0 °F 20% 30.19 in 10.0 mi NE 5.8 mph - N/A   Clear
9:52 PM 51.1 °F 6.1 °F 16% 30.16 in 10.0 mi NE 6.9 mph - N/A   Clear
10:52 PM 50.0 °F 3.0 °F 15% 30.16 in 10.0 mi NE 4.6 mph - N/A   Clear
11:52 PM 50.0 °F 3.9 °F 15% 30.13 in 10.0 mi Calm Calm - N/A   Clear